Edwards, CA

5:32 AM PST on February 24, 2017 (GMT -0800)
Edwards AFB North Base

Weather History for K9L2 - September, 2013

Change the Weather History Date:

Monday, September 9, 2013

  Actual Average (KEDW) Record (KEDW)
Temperature  
Mean Temperature 84 °F -  
Max Temperature 97 °F 91 °F 101 °F (2012)
Min Temperature 73 °F 58 °F 48 °F (2002)
Cooling Degree Days 20    
Growing Degree Days 34 (Base 50)    
Moisture  
Dew Point 44 °F    
Average Humidity 25    
Maximum Humidity 40    
Minimum Humidity 14    
Precipitation  
Precipitation 0.00 in - - ()
Sea Level Pressure  
Sea Level Pressure 29.74 in    
Wind  
Wind Speed 6 mph (WSW)    
Max Wind Speed 16 mph    
Max Gust Speed 28 mph    
Visibility 10 miles    
Events Thunderstorm    
Averages and records for this station are not official NWS values.
T = Trace of Precipitation, MM = Missing Value Source: NWS Daily Summary

Daily Weather History Graph

Daily Weather History Graph

Search for Another Location

Airport or City:

Trip Planner

Search our weather history database for the weather conditions in past years. The results will help you decide how hot, cold, wet, or windy it might be!

Date:

Astronomy

Sep. 09, 2013 Rise Set
Actual Time 6:30 AM PDT 7:06 PM PDT
Civil Twilight 6:04 AM PDT 7:31 PM PDT
Nautical Twilight 5:34 AM PDT 8:01 PM PDT
Astronomical Twilight 5:03 AM PDT 8:32 PM PDT
Moon 10:44 AM PDT (9/9) 9:39 PM PDT (9/9)
Length of Visible Light 13h 27m
Length of Day
12h 36m
Waxing Crescent, 20% of the Moon is Illuminated
Sep 9
Waxing Crescent
Sep 12
First Quarter
Sep 19
Full
Sep 26
Last Quarter
Oct 4
New

Hourly Weather History & Observations

Time (PDT) Temp. Dew Point Humidity Pressure Visibility Wind Dir Wind Speed Gust Speed Precip Events Conditions
12:55 AM 78.1 °F 50.0 °F 37% 29.80 in 10.0 mi WNW 5.8 mph - N/A   Clear
1:55 AM 77.0 °F 48.9 °F 37% 29.74 in 10.0 mi West 13.8 mph - N/A   Clear
2:55 AM 75.9 °F 48.0 °F 37% 29.76 in 10.0 mi Calm Calm - N/A   Clear
3:55 AM 75.0 °F 48.0 °F 38% 29.76 in 10.0 mi WNW 4.6 mph - N/A   Clear
4:55 AM 75.0 °F 48.0 °F 38% 29.76 in 10.0 mi Calm Calm - N/A   Clear
5:55 AM 73.9 °F 48.0 °F 40% 29.78 in 10.0 mi Calm Calm - N/A   Clear
6:55 AM 73.9 °F 48.0 °F 40% 29.79 in 10.0 mi SSW 4.6 mph - N/A   Clear
7:55 AM 75.0 °F 48.0 °F 38% 29.80 in 10.0 mi WNW 3.5 mph - N/A   Clear
8:55 AM 81.0 °F 48.0 °F 31% 29.80 in 10.0 mi North 3.5 mph - N/A   Clear
9:55 AM 84.0 °F 48.0 °F 28% 29.80 in 10.0 mi Calm Calm - N/A   Clear
10:55 AM 88.0 °F 46.9 °F 24% 29.79 in 10.0 mi Variable 3.5 mph - N/A   Clear
11:55 AM 90.0 °F 46.0 °F 22% 29.77 in 10.0 mi Calm Calm - N/A   Clear
12:55 PM 91.9 °F 45.0 °F 20% 29.74 in 10.0 mi SSE 5.8 mph - N/A   Clear
1:55 PM 91.9 °F 44.1 °F 19% 29.72 in 10.0 mi Variable 4.6 mph - N/A   Clear
2:55 PM 93.9 °F 43.0 °F 17% 29.69 in 10.0 mi Variable 3.5 mph - N/A   Clear
3:55 PM 95.0 °F 43.0 °F 17% 29.66 in 10.0 mi Calm Calm - N/A   Clear
4:55 PM 95.0 °F 42.1 °F 16% 29.65 in 10.0 mi Calm Calm - N/A   Clear
5:29 PM 96.8 °F 39.2 °F 14% 29.72 in 10.0 mi NW 11.5 mph 19.6 mph N/A Thunderstorm Thunderstorm
5:55 PM 95.0 °F 39.0 °F 14% 29.66 in 10.0 mi Variable 4.6 mph 27.6 mph N/A Thunderstorm Thunderstorm
6:25 PM 93.2 °F 41.0 °F 16% 29.74 in 10.0 mi WSW 15.0 mph - N/A   Mostly Cloudy
6:32 PM 91.4 °F 41.0 °F 17% 29.74 in 10.0 mi West 13.8 mph - N/A   Mostly Cloudy
6:55 PM 90.0 °F 41.0 °F 18% 29.68 in 10.0 mi WSW 13.8 mph 23.0 mph N/A   Partly Cloudy
7:55 PM 87.1 °F 37.9 °F 18% 29.68 in 10.0 mi West 11.5 mph - N/A   Clear
8:55 PM 84.0 °F 37.9 °F 19% 29.70 in 10.0 mi WSW 8.1 mph - N/A   Clear
9:55 PM 80.1 °F 37.9 °F 22% 29.70 in 10.0 mi SSW 16.1 mph 25.3 mph N/A   Clear
10:55 PM 77.0 °F 37.9 °F 24% 29.71 in 10.0 mi SSW 12.7 mph - N/A   Clear
11:55 PM 75.0 °F 36.0 °F 24% 29.71 in 10.0 mi South 11.5 mph - N/A   Clear